Location: Newark
(44.9333°N, 0.5667°E)
Time: 14:54:37
(UTC+00:00)

UWE-3 - Pass Details

Date: 21 February 2020
Orbit: 585 x 682 km, 97.6° (Epoch: 30 March)

Event Time Altitude Azimuth Distance (km) Brightness Sun altitude
Rises 05:10:12 0° 17° (NNE) 3,029 ? -18.4°
Reaches altitude 10° 05:12:29 10° 22° (NNE) 2,119 ? -18.0°
Maximum altitude 05:17:03 54° 99° (E) 828 ? -17.2°
Drops below altitude 10° 05:21:36 10° 177° (S) 2,120 ? -16.4°
Sets 05:23:53 0° 182° (S) 3,029 ? -16.0°
